2022-058E (52789 NORAD) Tracking and Keplerian Element Data

This shows tracking and keplerian element data for the satellite.

Feedback or suggestion? Click here.




ElementValue
Catalog52789
Name2022-058E
Epoch Orbit593
Epoch Day193.13140827
Epoch Year2022
RAAN74.5552
Inclination49.9911
Eccentricity0.001403
Argument of Perigee85.3106
Mean Anonmoly274.9451
Mean Motion14.8691812
Decay Rate1.412E-05
L11 52789U 22058E 22193.13140827 .00001412 00000+0 18220-3 0 9994
L22 52789 49.9911 74.5552 0014030 85.3106 274.9451 14.86918120 5934

Live tracking and technical data element details for 2022-058E (NORAD 52789). 2022-058E can be tracked NOW for your location showing map with azimuth and elevation plus other details from your city location.

Track the satellite on the map from your city or location and see movement details for azimuth, elevation, latitude, longitude, range, height, and movement on the map or in text.







IsCatalogInMostPopularTable: catalog: 52789, numindb: 3
Update: records affected: 1



GetName: 52789 2022-058E

Hit Count: updated at: Sun, 14 Aug 2022 01:18:05 GMT